Lid_Strength_Index
5 5 5 5 4 4 4 4 4 4 4 4 4 4 4 4 4 6 10 6 6 6 6 10 10 10 10 11 11 11 14 16 15 13 13 10 11 10 9 11 11 10 10 9 8
5 5 5 5 5 4 4 4 4 4 4 4 4 5 5 5 8 9 6 5 6 7 11 12 13 12 13 12 12 13 15 15 12 11 12 12 12 13 13 13 13 12 10 9 9
5 5 5 5 4 4 4 4 4 4 4 4 4 5 5 6 11 10 5 5 7 8 10 11 11 12 14 12 13 13 16 13 13 11 11 14 14 12 13 15 13 13 12 10 10
5 5 5 5 5 4 4 4 4 4 4 4 5 5 6 8 15 8 5 7 8 9 10 11 12 14 15 15 12 15 13 13 13 12 13 14 13 14 13 13 11 11 10 10 10
5 5 5 5 4 4 4 4 4 4 4 5 6 6 7 11 11 7 6 8 9 10 12 12 14 14 16 14 14 15 15 13 13 13 13 12 14 13 14 11 9 8 8 8 8
5 5 5 5 5 4 4 4 4 4 5 6 6 7 9 14 9 7 9 9 10 11 12 12 13 13 15 15 16 14 14 14 14 13 12 12 12 11 12 9 9 8 8 8 8
5 5 5 5 5 4 4 4 4 5 6 7 7 7 10 11 8 7 9 10 9 10 12 11 11 13 13 16 13 14 17 15 14 13 13 10 13 13 10 8 8 8 8 7 7
4 5 5 5 5 4 4 4 5 6 7 7 7 8 13 9 8 9 9 10 9 9 11 10 10 13 14 13 14 16 15 18 13 11 10 10 15 11 8 8 8 8 7 7 7
3 4 4 4 4 4 4 5 4 7 8 8 8 10 13 9 11 10 9 11 11 10 10 10 11 14 14 16 18 16 19 16 14 9 9 10 13 9 8 8 9 8 8 7 7
3 4 4 5 5 5 5 4 5 8 9 9 10 13 11 14 11 11 10 10 12 12 12 13 14 16 15 16 21 17 15 14 15 11 10 11 12 10 8 8 9 8 8 7 7
4 4 5 5 5 5 6 8 11 12 12 14 14 14 13 10 9 11 10 12 12 13 17 13 16 17 15 14 13 13 14 14 12 10 11 12 11 10 9 9 9 8 8 8 7
4 4 5 6 5 5 6 11 12 12 17 13 12 13 11 11 14 12 11 14 15 17 15 16 18 14 13 12 12 12 13 14 11 9 10 11 13 10 9 9 9 8 9 8 8
5 5 6 6 5 6 9 11 9 10 16 14 13 13 13 12 14 14 13 14 16 17 17 18 16 14 14 14 13 12 13 13 13 11 10 12 14 12 10 9 8 8 8 8 8
5 6 6 6 7 8 10 9 9 10 18 15 15 14 13 13 16 11 12 14 15 18 17 17 15 15 15 14 11 14 11 11 12 13 18 13 20 15 12 11 9 9 9 9 9
6 6 6 6 8 10 9 9 9 12 21 16 16 12 13 15 14 13 12 14 18 17 17 19 17 16 16 12 9 13 10 11 12 14 15 16 19 16 12 12 10 10 10 9 9
6 6 6 8 8 8 8 8 11 17 21 17 15 16 16 14 14 13 13 13 13 17 16 17 12 12 11 9 9 8 11 12 12 15 20 17 16 17 15 12 11 10 10 10 10
6 6 7 7 10 8 8 11 17 20 14 18 17 16 17 17 17 17 18 18 20 22 21 18 16 13 9 14 11 14 18 20 25 23 22 14 17 16 12 11 10 12 11 11 10
6 6 7 8 8 8 10 14 20 18 18 15 17 17 19 18 18 18 19 21 17 19 21 23 24 15 10 11 13 12 16 19 24 24 21 15 24 16 10 10 10 10 11 10 11
6 8 8 8 8 9 12 18 18 18 17 18 18 20 19 18 19 20 21 20 18 17 21 21 20 12 10 9 9 15 20 12 17 19 24 19 15 11 10 11 11 12 11 12 12
9 9 10 8 9 11 15 17 17 15 16 17 22 20 24 22 22 22 21 18 19 16 16 18 23 15 11 10 10 12 10 18 16 24 27 21 19 18 15 15 13 13 13 14 14
10 14 10 9 9 14 19 18 18 15 16 20 21 22 21 23 22 23 21 19 17 18 16 18 20 19 13 18 15 13 16 13 14 20 22 23 23 17 17 18 18 16 13 15 16
12 16 10 9 16 15 18 17 16 17 16 17 18 19 22 23 23 23 21 19 16 17 21 17 19 22 19 13 12 14 16 14 20 23 21 21 21 17 18 17 16 14 13 15 16
14 15 10 11 19 17 16 18 16 17 18 19 19 18 19 24 24 22 21 17 16 17 18 18 21 24 24 18 15 15 12 14 17 18 22 22 21 15 12 12 13 14 16 16 15
14 18 14 14 15 18 19 19 20 16 18 17 18 18 22 23 20 23 21 18 15 16 13 13 18 23 23 22 16 17 17 18 19 24 22 20 18 15 14 15 14 16 17 19 17
15 17 16 18 17 17 17 19 20 20 17 17 20 20 21 23 23 23 21 19 15 14 16 16 22 24 21 17 16 17 17 19 23 19 20 18 18 16 15 15 15 16 17 19 18
15 16 16 17 17 18 18 19 19 18 19 20 20 18 19 21 21 23 21 19 20 17 17 14 20 22 21 19 21 22 19 19 16 16 18 17 19 15 15 14 15 17 19 20 19
12 13 15 17 17 19 18 18 18 17 17 17 18 19 20 19 17 17 16 16 17 18 19 17 20 23 25 21 20 21 17 20 21 18 19 20 16 13 14 15 18 17 20 21 20